User: anonymous   Login
Location: Newark
(34.1333°N, 7.9667°W)
Time: 17:30:20
(UTC+00:00)
Language:

deb S5M - Orbit

View from above orbital plane
View from above orbital plane
View from above satellite
View from above satellite

Ground track
Ground track

The orbit data is extracted from the following two-line orbital elements,

1 25203U 87068AE  21293.42406933  .00000490  00000-0  20912-3 0  9999
2 25203  82.2660 276.7813 0098441  26.5230 334.0938 14.20828969223169
Epoch (UTC): 20 October 2021 10:10:39
Eccentricity: 0.0098441
inclination: 82.2660°
perigee height: 751 km
apogee height: 893 km
right ascension of ascending node: 276.7813°
argument of perigee: 26.5230°
revolutions per day: 14.20828969
mean anomaly at epoch: 334.0938°
orbit number at epoch: 22316

The dashed part of the orbit path shows where the satellite is in the earth's shadow,  

DLR